LOWW

Vienna International/Schwechat

Airport
ICAO code
LOWW
IATA Code
VIE
Summary
ICAO Region
EUR
ICAO Territory
Location

Schwechat, Vienna

Serving
Vienna
Elevation
600 ft
Coordinates
48° 6' 37" N , 16° 34' 11" E
KCC
Metar
Observation
LOWW 271320Z 33010KT 9999 FEW017 SCT026 BKN036 00/M03 Q1017 NOSIG
Station
Wien / Schwechat-Flughafen
Date/Time
2023-01-27 13:20:00
Wind direction
330°
Wind speed
10 kts
Lowest cloud amount
few clouds
Temperature
0°C
Dew point
-3°C
Humidity
80%
QNH
1017 hPa
Weather condition
n/a

International airport serving Vienna, capital of Austria.

Climatology

Humid Continental climate (Köppen climate classification Dfb)

Runways

Designator Length Width Surface Rops
11/29 3500 45 ASP Yes/Yes
16/34 3600 45 ASP Yes/Yes

Airport map

Aerial View

Airport accidents

SKYbrary Partners:

Safety knowledge contributed by: